Location: Dal�� Lhota
(48.7500°N, 14.0167°E)
Time: 22:35:08
(UTC+00:00)

MetOp-B - Pass Details

Date: 24 September 2020
Orbit: 819 x 821 km, 98.7° (Epoch: 25 October)

Event Time Altitude Azimuth Distance (km) Brightness Sun altitude
Exits shadow 19:17:29 48° 76° (ENE) 1,073 4.4 -23.2°
Maximum altitude 19:17:43 48° 67° (ENE) 1,068 4.4 -23.2°
Drops below altitude 10° 19:22:51 10° 355° (N) 2,427 7.0 -24.0°
Sets 19:25:16 0° 350° (N) 3,364 7.9 -24.3°
